Jaipur / Sanganer, India

12:11 AM IST on February 27, 2017 (GMT +0530)
Jaipur

Weather History for VIJP - February, 2013

Change the Weather History Date:

Saturday, February 23, 2013

  Actual Average Record
Temperature  
Mean Temperature 70 °F -  
Max Temperature 77 °F - - ()
Min Temperature 63 °F - - ()
Cooling Degree Days 5    
Growing Degree Days 20 (Base 50)    
Moisture  
Dew Point 54 °F    
Average Humidity 58    
Maximum Humidity 83    
Minimum Humidity 30    
Precipitation  
Precipitation 0.00 in - - ()
Sea Level Pressure  
Sea Level Pressure 30.00 in    
Wind  
Wind Speed 6 mph ()    
Max Wind Speed 10 mph    
Max Gust Speed -    
Visibility 1.8 miles    
Events Rain , Thunderstorm    
T = Trace of Precipitation, MM = Missing Value Source: Averaged Metar Reports

Daily Weather History Graph

Daily Weather History Graph

Search for Another Location

Airport or City:

Trip Planner

Search our weather history database for the weather conditions in past years. The results will help you decide how hot, cold, wet, or windy it might be!

Date:

Astronomy

Feb. 23, 2013 Rise Set
Actual Time 6:56 AM IST 6:24 PM IST
Civil Twilight 6:33 AM IST 6:47 PM IST
Nautical Twilight 6:05 AM IST 7:14 PM IST
Astronomical Twilight 5:39 AM IST 7:41 PM IST
Moon 4:14 PM IST (2/23) 4:52 AM IST (2/23)
Length of Visible Light 12h 14m
Length of Day
11h 27m
Waxing Gibbous, 93% of the Moon is Illuminated
Feb 23
Waxing Gibbous
Feb 26
Full
Mar 5
Last Quarter
Mar 12
New
Mar 19
First Quarter

Hourly Weather History & Observations

Time (IST) Temp. Dew Point Humidity Pressure Visibility Wind Dir Wind Speed Gust Speed Precip Events Conditions
12:00 AM 69.8 °F 53.6 °F 56% 29.95 in 1.9 mi East 10.4 mph - N/A Thunderstorm Thunderstorm
1:00 AM 68.0 °F 53.6 °F 60% 29.95 in 1.9 mi East 10.4 mph - N/A   Haze
2:00 AM 68.0 °F 53.6 °F 60% 29.92 in 1.9 mi East 9.2 mph - N/A   Haze
2:30 AM 68.0 °F 53.6 °F 60% 29.92 in 1.9 mi East 9.2 mph - N/A   Haze
5:30 AM 64 °F 57 °F 71% 29.89 in 1 mi Calm Calm - - Thunderstorm Thunderstorm
6:00 AM 64.4 °F 57.2 °F 77% 29.95 in 1.9 mi WNW 4.6 mph - N/A   Haze
7:00 AM 64.4 °F 57.2 °F 77% 29.95 in 1.6 mi Variable 3.5 mph - N/A   Haze
8:00 AM 64.4 °F 57.2 °F 77% 29.98 in 1.2 mi Calm Calm - N/A   Haze
8:30 AM 67 °F 58 °F 66%  in 1 mi East 3.5 mph - -   Smoke
9:00 AM 69.8 °F 57.2 °F 64% 30.01 in 1.2 mi East 5.8 mph - N/A   Smoke
10:00 AM 73.4 °F 55.4 °F 53% 30.04 in 1.6 mi East 3.5 mph - N/A   Smoke
11:00 AM 73.4 °F 50.0 °F 44% 30.06 in 2.5 mi Variable 5.8 mph - N/A   Haze
11:30 AM 75 °F 50 °F 30% 30.00 in 2 mi SW 6.9 mph - -   Haze
12:00 PM 73.4 °F 51.8 °F 47% 30.04 in 2.5 mi Variable 4.6 mph - N/A   Haze
1:00 PM 73.4 °F 51.8 °F 47% 30.01 in 2.5 mi WSW 6.9 mph - N/A   Haze
2:00 PM 75.2 °F 53.6 °F 47% 29.98 in 2.5 mi Variable 5.8 mph - N/A   Haze
2:30 PM 75 °F 55 °F 39% 29.93 in 2 mi WNW 3.5 mph - - Rain Light Rain
3:00 PM 75.2 °F 51.8 °F 44% 29.98 in 2.5 mi West 9.2 mph - N/A   Haze
4:00 PM 75.2 °F 50.0 °F 41% 29.98 in 2.5 mi West 9.2 mph - N/A   Haze
5:00 PM 73.4 °F 50.0 °F 44% 29.98 in 2.5 mi WNW 8.1 mph - N/A   Haze
5:30 PM 73 °F 53 °F 38% 29.93 in 2 mi NW 6.9 mph - -   Haze
6:00 PM 71.6 °F 51.8 °F 50% 29.98 in 2.5 mi WNW 5.8 mph - N/A   Haze
7:00 PM 71.6 °F 51.8 °F 50% 30.01 in 2.2 mi NNW 4.6 mph - N/A   Haze
7:30 PM 69.8 °F 51.8 °F 53% 30.01 in 2.2 mi Variable 5.8 mph - N/A   Haze
8:00 PM 68.0 °F 59.0 °F 73% 30.04 in 2.2 mi ENE 5.8 mph - N/A   Haze
8:30 PM 68 °F 57 °F 59% 30.01 in 1 mi East 4.6 mph - -   Haze
9:00 PM 66.2 °F 57.2 °F 73% 30.06 in 1.6 mi East 4.6 mph - N/A   Haze
9:30 PM 64.4 °F 59.0 °F 83% 30.06 in 1.6 mi ESE 8.1 mph - N/A   Haze
10:00 PM 64.4 °F 59.0 °F 83% 30.09 in 1.1 mi East 4.6 mph - N/A   Scattered Clouds
11:00 PM 64.4 °F 57.2 °F 77% 30.09 in 1.2 mi NNE 3.5 mph - N/A   Scattered Clouds
11:30 PM 64 °F 55 °F 64% 30.06 in 1 mi NNE 6.9 mph - -   Mist